Location: Waltman Observatory
(32.5145°N, 90.4450°W)
Time: 13:24:16
(UTC-06:00)

Amateur Radio Satellites - All Passes

Search period start: 24 February 2017 12:54
Search period end: 25 February 2017 12:54
Location: Waltman Observatory, 32.5145°N, 90.4450°W

Satellite Date Start Highest point End Downlink Frequencies (MHz)
Time Altitude Azimuth
AO-7 24 Feb 12:55:06 12:59:14 15° 54° (NE) 13:03:21 .
Oscar 19 24 Feb 12:56:34 13:01:44 76° 258° (WSW) 13:06:53 437.125/150
50 SAT 24 Feb 13:04:37 13:07:25 23° 287° (WNW) 13:10:12 437.505
DX 1 24 Feb 13:09:51 13:14:04 50° 286° (WNW) 13:18:16 434.975-435.025
VELOX 1 24 Feb 13:15:40 13:18:44 19° 291° (WNW) 13:21:48 145.980
AO-85 24 Feb 13:23:29 13:27:14 44° 59° (ENE) 13:31:05 145.980
UKube-1 24 Feb 13:24:12 13:28:21 48° 286° (WNW) 13:32:30 .
ITAMSAT 1 24 Feb 13:29:41 13:33:15 19° 67° (ENE) 13:36:52 435.822/435.867
SPROUT 24 Feb 13:32:34 13:34:51 14° 292° (WNW) 13:37:08 437.525
Gurwin Techsat 1B 24 Feb 13:32:48 13:38:02 63° 259° (WSW) 13:43:19 435.225
ISS 24 Feb 14:19:27 14:21:35 16° 33° (NNE) 14:23:42 437.550
ITUPSAT 1 24 Feb 14:37:55 14:42:39 58° 101° (E) 14:47:20 437.325
AO-7 24 Feb 14:42:20 14:50:42 80° 71° (ENE) 14:59:04 .
BEESAT 24 Feb 14:45:10 14:49:57 72° 102° (ESE) 14:54:42 436.000
Tancredo 1 24 Feb 14:47:08 14:49:59 28° 38° (NE) 14:52:49 437.200
AO-85 24 Feb 15:06:34 15:07:12 10° 251° (WSW) 15:07:50 145.980
ITAMSAT 1 24 Feb 15:07:28 15:12:21 42° 261° (W) 15:17:18 435.822/435.867
BEESAT 3 24 Feb 15:10:30 15:14:11 34° 58° (ENE) 15:17:51 437.485
MOZHAYETS 4 24 Feb 15:15:04 15:19:33 52° 100° (E) 15:24:00
PCSat 24 Feb 15:23:19 15:28:15 38° 109° (ESE) 15:33:13 145.827
RS-15 24 Feb 15:25:27 15:33:39 22° 100° (E) 15:42:03 29.354- 29.394
BEESAT 2 24 Feb 15:46:31 15:50:15 35° 58° (ENE) 15:53:57 435.950
KKS-1 24 Feb 15:53:22 15:57:21 31° 98° (E) 16:01:18 437.445
ISS 24 Feb 15:55:04 15:58:12 42° 228° (SW) 16:01:17 437.550
CUBESAT XI-V 24 Feb 16:12:05 16:16:08 30° 97° (E) 16:20:10 437.345
CUTE-I 24 Feb 16:12:23 16:13:50 11° 63° (ENE) 16:15:16 437.470
ITUPSAT 1 24 Feb 16:18:02 16:19:55 12° 295° (WNW) 16:21:46 437.325
NO-84 24 Feb 16:20:55 16:23:56 57° 128° (SE) 16:27:13 435.350 FM
Tancredo 1 24 Feb 16:23:49 16:26:05 18° 232° (SW) 16:28:20 437.200
STARS 24 Feb 16:30:00 16:34:03 34° 99° (E) 16:38:05 437.465
AO-7 24 Feb 16:39:04 16:44:04 17° 266° (W) 16:49:06 .
BEESAT 3 24 Feb 16:49:15 16:51:27 14° 251° (WSW) 16:53:38 437.485
MOZHAYETS 4 24 Feb 16:54:20 16:56:12 12° 294° (WNW) 16:58:04
PCSat 24 Feb 17:07:20 17:11:41 24° 304° (NW) 17:16:05 145.827
DOVE 4 24 Feb 17:08:03 17:11:58 43° 74° (ENE) 17:15:54 437.250
M-CUBED/EXP-1 PRIME 24 Feb 17:15:22 17:19:11 58° 105° (ESE) 17:23:19 437.505
KAITUO 1B 24 Feb 17:16:34 17:20:08 39° 75° (ENE) 17:23:42 145.475/437.950
XW-2F 24 Feb 17:19:38 17:23:21 54° 76° (ENE) 17:27:06 145.980 - 146.000
XW-2D 24 Feb 17:23:39 17:27:26 66° 77° (ENE) 17:31:16 145.860 - 145.880
BEESAT 2 24 Feb 17:25:25 17:27:41 15° 251° (WSW) 17:29:57 435.950
XW-2B 24 Feb 17:28:39 17:32:28 75° 77° (ENE) 17:36:19 145.730 - 145.750
KKS-1 24 Feb 17:30:29 17:33:38 19° 291° (WNW) 17:36:47 437.445
RS-15 24 Feb 17:32:45 17:44:35 82° 298° (WNW) 17:57:00 29.354- 29.394
XW-2C 24 Feb 17:37:14 17:41:03 81° 256° (WSW) 17:44:56 145.795 - 145.815
XW-2A 24 Feb 17:47:39 17:49:26 14° 70° (ENE) 17:51:14 145.665 - 145.685
CUTE-I 24 Feb 17:47:49 17:53:08 77° 257° (WSW) 17:58:30 437.470
CUBESAT XI-V 24 Feb 17:49:57 17:53:16 20° 291° (WNW) 17:56:35 437.345
NUDT-PHONESAT 24 Feb 17:52:24 17:56:07 61° 260° (W) 17:59:51 437.300
LilacSat-2 24 Feb 17:53:18 17:57:00 45° 261° (W) 18:00:45 437.200
NO-84 24 Feb 18:00:45 18:01:57 12° 326° (NNW) 18:03:12 435.350 FM
CUTE 1.7 + AOD 2 24 Feb 18:03:45 18:06:42 18° 70° (ENE) 18:09:39 437.475
STARS 24 Feb 18:07:14 18:10:05 17° 292° (WNW) 18:12:55 437.465
HO-68 24 Feb 18:10:37 18:17:12 41° 68° (ENE) 18:23:47 435.675
CUBEBUG 2 24 Feb 18:15:30 18:16:17 10° 65° (ENE) 18:17:04 437.445
DOVE 4 24 Feb 18:49:07 18:49:52 10° 267° (W) 18:50:38 437.250
UWE-3 24 Feb 18:52:16 18:55:15 18° 68° (ENE) 18:58:17 435.000/436.395/437.385
AAUSAT CUBESAT 2 24 Feb 18:54:06 18:57:16 21° 71° (ENE) 19:00:26 437.432
SEEDS 24 Feb 19:01:15 19:05:25 59° 76° (ENE) 19:09:34 437.485
ZACube-1 24 Feb 19:15:02 19:18:08 19° 69° (ENE) 19:21:16 437.345
XW-2A 24 Feb 19:19:16 19:21:58 22° 263° (W) 19:24:42 145.665 - 145.685
STRAND 1 24 Feb 19:31:00 19:36:11 84° 284° (WNW) 19:41:19 437.568
CUTE 1.7 + AOD 2 24 Feb 19:38:33 19:42:17 29° 263° (W) 19:46:01 437.475
CUBEBUG 2 24 Feb 19:47:59 19:52:16 58° 260° (W) 19:56:43 437.445
RS-15 24 Feb 19:50:07 19:59:15 24° 322° (NW) 20:08:38 29.354- 29.394
HO-68 24 Feb 19:58:39 20:04:53 32° 262° (W) 20:11:08 435.675
AO-73 24 Feb 20:02:30 20:06:50 62° 75° (ENE) 20:11:18 145.935
Oscar 11 24 Feb 20:10:19 20:14:38 67° 76° (ENE) 20:18:58 .
UWE-3 24 Feb 20:27:26 20:31:23 33° 263° (W) 20:35:28 435.000/436.395/437.385
AAUSAT CUBESAT 2 24 Feb 20:29:14 20:32:34 23° 264° (W) 20:35:54 437.432
DELFI C3 24 Feb 20:33:04 20:36:38 33° 74° (ENE) 20:40:12 145.870
JUGNU 24 Feb 20:33:38 20:37:08 16° 167° (SSE) 20:40:38 437.505
YUBILEINY 24 Feb 20:44:48 20:52:31 34° 75° (ENE) 21:00:10 435.215
ZACube-1 24 Feb 20:50:13 20:54:07 31° 263° (W) 20:58:08 437.345
UNISAT 6 24 Feb 20:56:08 20:57:51 12° 92° (E) 20:59:35 437.425
TIGRISAT 24 Feb 20:57:05 20:58:21 11° 92° (E) 20:59:38 435.000
PRISM 24 Feb 20:57:22 21:00:58 30° 98° (E) 21:04:33 437.425
LO-87 24 Feb 21:30:22 21:32:34 16° 71° (ENE) 21:34:45 145.935 - 145.965
SO-50 24 Feb 21:50:08 21:54:50 75° 117° (ESE) 21:59:29 436.795
FO-29 24 Feb 21:56:19 22:02:54 33° 94° (E) 22:08:53 435.910
ESTCUBE 1 24 Feb 22:03:14 22:06:54 25° 71° (ENE) 22:10:34 437.505/2401.250
DELFI C3 24 Feb 22:09:34 22:11:28 13° 266° (W) 22:13:24 145.870
RS-15 24 Feb 22:16:53 22:18:54 10° 359° (N) 22:20:55 29.354- 29.394
JUGNU 24 Feb 22:21:00 22:25:31 23° 177° (S) 22:30:02 437.505
UNISAT 6 24 Feb 22:30:14 22:34:47 52° 286° (WNW) 22:39:17 437.425
TIGRISAT 24 Feb 22:30:43 22:35:18 56° 286° (WNW) 22:39:50 435.000
VELOX 1 24 Feb 22:32:31 22:35:11 16° 68° (ENE) 22:37:51 145.980
PRISM 24 Feb 22:33:26 22:35:58 16° 291° (WNW) 22:38:31 437.425
O/OREOS (USA 219) 24 Feb 22:36:27 22:40:54 80° 288° (WNW) 22:45:25 437.305
AIST 2D 24 Feb 22:37:07 22:39:38 18° 95° (E) 22:42:09 435.315
YUBILEINY 24 Feb 22:41:17 22:49:17 43° 272° (W) 22:57:16 435.215
SPROUT 24 Feb 22:45:11 22:47:56 17° 69° (ENE) 22:50:41 437.525
LO-87 24 Feb 23:03:03 23:05:49 21° 264° (W) 23:08:35 145.935 - 145.965
SRMSAT 24 Feb 23:19:36 23:23:29 18° 168° (SSE) 23:27:22 437.500
DUCHIFAT 1 24 Feb 23:27:19 23:31:22 41° 99° (E) 23:35:22 145.980
50 SAT 24 Feb 23:33:20 23:36:46 55° 76° (ENE) 23:40:12 437.505
SO-50 24 Feb 23:34:09 23:35:46 12° 312° (NW) 23:37:22 436.795
EO-79 24 Feb 23:37:14 23:41:30 69° 101° (E) 23:45:45 145.935-145.965
ESTCUBE 1 24 Feb 23:39:56 23:43:34 24° 264° (W) 23:47:13 437.505/2401.250
FO-29 24 Feb 23:40:58 23:47:52 40° 292° (WNW) 23:54:09 435.910
POLYITAN 1 24 Feb 23:54:34 23:58:51 71° 285° (WNW) 00:03:07 437.675
NANOSAT C BR1 24 Feb 23:54:36 23:58:52 79° 285° (WNW) 00:03:08 145.865
QB50P2 24 Feb 23:57:33 00:01:47 60° 284° (WNW) 00:05:59 145.880/145.840
DX 1 25 Feb 00:00:20 00:04:38 75° 77° (ENE) 00:08:58 434.975-435.025
VELOX 1 25 Feb 00:07:17 00:11:18 35° 261° (W) 00:15:20 145.980
JUGNU 25 Feb 00:09:35 00:13:55 21° 187° (S) 00:18:17 437.505
AIST 2D 25 Feb 00:10:12 00:12:43 18° 288° (WNW) 00:15:14 435.315
UKube-1 25 Feb 00:13:35 00:17:52 75° 76° (ENE) 00:22:10 .
PCSat 25 Feb 00:17:22 00:19:51 13° 50° (NE) 00:22:18 145.827
SPROUT 25 Feb 00:19:48 00:23:33 31° 262° (W) 00:27:21 437.525
BUGSAT 1 25 Feb 00:26:34 00:30:48 71° 101° (E) 00:35:02 437.445
RS-15 25 Feb 00:29:43 00:38:45 23° 36° (NE) 00:47:31 29.354- 29.394
NO-84 25 Feb 00:35:21 00:39:32 58° 47° (NE) 00:43:54 435.350 FM
DUCHIFAT 1 25 Feb 01:04:35 01:06:37 13° 292° (WNW) 01:08:39 145.980
SRMSAT 25 Feb 01:07:22 01:12:03 24° 178° (S) 01:16:45 437.500
Oscar 19 25 Feb 01:12:48 01:17:50 55° 101° (E) 01:22:50 437.125/150
ITUPSAT 1 25 Feb 01:40:04 01:44:32 40° 72° (ENE) 01:49:00 437.325
BEESAT 25 Feb 01:46:51 01:51:26 48° 73° (ENE) 01:56:02 436.000
Gurwin Techsat 1B 25 Feb 01:53:35 01:58:55 76° 102° (ESE) 02:04:13 435.225
PCSat 25 Feb 01:58:23 02:03:50 79° 247° (WSW) 02:09:13 145.827
JUGNU 25 Feb 01:59:45 02:02:17 13° 196° (SSW) 02:04:49 437.505
MOZHAYETS 4 25 Feb 02:12:30 02:16:29 29° 71° (ENE) 02:20:29
NO-84 25 Feb 02:14:31 02:16:55 15° 239° (WSW) 02:19:20 435.350 FM
RS-15 25 Feb 02:41:17 02:53:37 78° 61° (ENE) 03:05:19 29.354- 29.394
KKS-1 25 Feb 02:47:56 02:50:45 17° 68° (ENE) 02:53:35 437.445
AO-7 25 Feb 02:49:48 02:57:14 35° 99° (E) 03:04:35 .
Oscar 19 25 Feb 02:53:56 02:56:37 14° 295° (WNW) 02:59:19 437.125/150
SRMSAT 25 Feb 02:56:16 03:00:39 21° 188° (S) 03:05:02 437.500
CUBESAT XI-V 25 Feb 03:11:33 03:14:47 19° 69° (ENE) 03:18:00 437.345
ITUPSAT 1 25 Feb 03:19:24 03:22:26 17° 265° (W) 03:25:30 437.325
STARS 25 Feb 03:23:01 03:25:56 18° 69° (ENE) 03:28:52 437.465
ITAMSAT 1 25 Feb 03:24:34 03:29:49 82° 284° (WNW) 03:35:02 435.822/435.867
BEESAT 25 Feb 03:27:05 03:29:24 13° 267° (W) 03:31:42 436.000
AO-85 25 Feb 03:32:55 03:37:28 49° 115° (ESE) 03:41:42 145.980
Gurwin Techsat 1B 25 Feb 03:36:40 03:38:08 11° 297° (WNW) 03:39:37 435.225
MOZHAYETS 4 25 Feb 03:50:04 03:53:35 21° 265° (W) 03:57:07
M-CUBED/EXP-1 PRIME 25 Feb 03:58:23 04:01:13 27° 69° (ENE) 04:04:01 437.505
KKS-1 25 Feb 04:22:59 04:27:00 34° 262° (W) 04:31:01 437.445
AO-7 25 Feb 04:42:16 04:49:57 44° 294° (WNW) 04:57:36 .
SRMSAT 25 Feb 04:47:01 04:49:11 12° 197° (SSW) 04:51:20 437.500
CUBESAT XI-V 25 Feb 04:47:38 04:51:51 34° 262° (W) 04:56:05 437.345
RS-15 25 Feb 04:55:55 05:04:40 24° 259° (W) 05:13:11 29.354- 29.394
BEESAT 3 25 Feb 04:57:07 04:59:40 17° 109° (ESE) 05:02:14 437.485
STARS 25 Feb 04:58:08 05:02:00 31° 262° (W) 05:05:54 437.465
XW-2B 25 Feb 05:08:15 05:09:15 11° 93° (E) 05:10:14 145.730 - 145.750
DOVE 4 25 Feb 05:11:02 05:14:32 20° 96° (E) 05:18:09 437.250
AO-85 25 Feb 05:15:27 05:18:02 15° 308° (NW) 05:20:31 145.980
XW-2C 25 Feb 05:15:49 05:17:57 14° 94° (E) 05:20:04 145.795 - 145.815
NUDT-PHONESAT 25 Feb 05:28:33 05:31:02 17° 95° (E) 05:33:29 437.300
LilacSat-2 25 Feb 05:31:24 05:34:35 25° 96° (E) 05:37:44 437.200
BEESAT 2 25 Feb 05:34:30 05:37:11 18° 110° (ESE) 05:39:55 435.950
M-CUBED/EXP-1 PRIME 25 Feb 05:35:16 05:35:45 10° 260° (W) 05:36:12 437.505
CUTE-I 25 Feb 06:09:32 06:14:52 64° 102° (ESE) 06:20:11 437.470
KAITUO 1B 25 Feb 06:26:01 06:29:45 71° 283° (WNW) 06:33:27 145.475/437.950
SO-50 25 Feb 06:26:44 06:29:59 19° 52° (NE) 06:33:12 436.795
XW-2F 25 Feb 06:30:22 06:34:03 50° 285° (WNW) 06:37:42 145.980 - 146.000
BEESAT 3 25 Feb 06:33:37 06:37:00 28° 303° (WNW) 06:40:27 437.485
XW-2D 25 Feb 06:34:56 06:38:31 40° 285° (WNW) 06:42:05 145.860 - 145.880
XW-2B 25 Feb 06:40:03 06:43:33 36° 286° (WNW) 06:47:02 145.730 - 145.750
STRAND 1 25 Feb 06:42:05 06:47:13 86° 72° (ENE) 06:52:23 437.568
XW-2A 25 Feb 06:45:16 06:48:14 26° 97° (E) 06:51:10 145.665 - 145.685
DOVE 4 25 Feb 06:47:51 06:52:12 36° 287° (WNW) 06:56:46 437.250
XW-2C 25 Feb 06:48:53 06:52:09 27° 287° (WNW) 06:55:23 145.795 - 145.815
SEEDS 25 Feb 06:51:14 06:53:20 13° 94° (E) 06:55:24 437.485
ISS 25 Feb 06:54:56 06:58:06 47° 133° (SE) 07:01:17 437.550
NUDT-PHONESAT 25 Feb 07:01:54 07:04:54 23° 288° (WNW) 07:07:52 437.300
LilacSat-2 25 Feb 07:06:09 07:08:38 17° 290° (WNW) 07:11:05 437.200
BEESAT 2 25 Feb 07:11:19 07:14:43 27° 304° (WNW) 07:18:10 435.950
Tancredo 1 25 Feb 07:21:09 07:24:24 72° 316° (NW) 07:27:39 437.200
CUTE 1.7 + AOD 2 25 Feb 07:27:17 07:31:29 65° 101° (E) 07:35:38 437.475
HO-68 25 Feb 07:30:09 07:37:15 66° 103° (ESE) 07:44:20 435.675
CUBEBUG 2 25 Feb 07:43:14 07:47:45 43° 98° (E) 07:52:12 437.445
PRISM 25 Feb 07:44:06 07:45:43 12° 67° (ENE) 07:47:20 437.425
CUTE-I 25 Feb 07:51:42 07:54:18 14° 296° (WNW) 07:56:53 437.470
AO-73 25 Feb 07:56:13 07:59:14 17° 94° (E) 08:02:12 145.935
Oscar 11 25 Feb 08:03:11 08:06:04 17° 94° (E) 08:08:56 .
SO-50 25 Feb 08:06:25 08:10:31 36° 247° (WSW) 08:14:36 436.795
AAUSAT CUBESAT 2 25 Feb 08:14:50 08:18:56 74° 101° (ESE) 08:23:01 437.432
XW-2A 25 Feb 08:19:14 08:20:42 12° 290° (WNW) 08:22:11 145.665 - 145.685
UWE-3 25 Feb 08:20:58 08:25:38 71° 101° (E) 08:30:10 435.000/436.395/437.385
SEEDS 25 Feb 08:25:17 08:29:06 35° 286° (WNW) 08:32:53 437.485
ISS 25 Feb 08:32:44 08:34:45 15° 327° (NNW) 08:36:46 437.550
ZACube-1 25 Feb 08:42:28 08:47:01 72° 101° (E) 08:51:27 437.345
O/OREOS (USA 219) 25 Feb 08:50:53 08:55:29 90° 283° (WNW) 09:00:05 437.305
PRISM 25 Feb 09:16:45 09:20:36 40° 260° (W) 09:24:27 437.425
HO-68 25 Feb 09:19:24 09:24:18 20° 298° (WNW) 09:29:11 435.675
CUBEBUG 2 25 Feb 09:21:05 09:23:56 16° 292° (WNW) 09:26:47 437.445
UNISAT 6 25 Feb 09:23:51 09:28:18 77° 77° (ENE) 09:32:53 437.425
TIGRISAT 25 Feb 09:24:13 09:28:38 72° 76° (ENE) 09:33:12 435.000
AO-73 25 Feb 09:31:27 09:35:29 33° 288° (WNW) 09:39:27 145.935
Oscar 11 25 Feb 09:38:25 09:42:12 30° 288° (WNW) 09:45:57 .
YUBILEINY 25 Feb 09:39:25 09:47:40 46° 89° (E) 09:55:53 435.215
FO-29 25 Feb 09:45:34 09:52:22 62° 72° (ENE) 09:59:54 435.910
DELFI C3 25 Feb 09:48:50 09:52:44 75° 283° (WNW) 09:56:38 145.870
DUCHIFAT 1 25 Feb 10:15:36 10:18:19 17° 69° (ENE) 10:21:03 145.980
EO-79 25 Feb 10:25:22 10:28:55 27° 72° (ENE) 10:32:30 145.935-145.965
LO-87 25 Feb 10:33:46 10:37:07 36° 99° (E) 10:40:27 145.935 - 145.965
AIST 2D 25 Feb 10:38:54 10:42:25 72° 77° (ENE) 10:45:59 435.315
NANOSAT C BR1 25 Feb 10:41:59 10:45:54 39° 73° (ENE) 10:49:50 145.865
POLYITAN 1 25 Feb 10:42:19 10:46:21 44° 74° (ENE) 10:50:24 437.675
QB50P2 25 Feb 10:45:12 10:49:18 52° 75° (ENE) 10:53:26 145.880/145.840
BUGSAT 1 25 Feb 11:12:12 11:15:31 25° 71° (ENE) 11:18:51 437.445
FO-29 25 Feb 11:32:49 11:37:51 21° 269° (W) 11:43:14 435.910
ESTCUBE 1 25 Feb 11:35:50 11:40:19 80° 283° (WNW) 11:44:46 437.505/2401.250
YUBILEINY 25 Feb 11:36:53 11:44:30 32° 285° (WNW) 11:52:11 435.215
DUCHIFAT 1 25 Feb 11:50:01 11:53:43 30° 262° (W) 11:57:27 145.980
DX 1 25 Feb 11:53:57 11:56:59 18° 96° (E) 12:00:00 434.975-435.025
VELOX 1 25 Feb 12:01:15 12:05:37 58° 101° (E) 12:09:59 145.980
EO-79 25 Feb 12:01:39 12:04:38 19° 265° (W) 12:07:38 145.935-145.965
UKube-1 25 Feb 12:06:10 12:09:05 18° 96° (E) 12:11:58 .
SPROUT 25 Feb 12:09:23 12:13:39 59° 101° (E) 12:17:53 437.525
LO-87 25 Feb 12:09:48 12:10:11 10° 291° (WNW) 12:10:33 145.935 - 145.965
AO-85 25 Feb 12:11:08 12:11:50 10° 50° (NE) 12:12:33 145.980
NANOSAT C BR1 25 Feb 12:19:53 12:21:44 13° 267° (W) 12:23:34 145.865
POLYITAN 1 25 Feb 12:20:58 12:22:18 11° 267° (W) 12:23:38 437.675
Oscar 19 25 Feb 12:25:02 12:29:59 50° 73° (ENE) 12:34:57 437.125/150
50 SAT 25 Feb 12:35:27 12:38:53 63° 283° (WNW) 12:42:17 437.505
BUGSAT 1 25 Feb 12:47:57 12:50:48 19° 265° (W) 12:53:41 437.445
